User: anonymous   Login
Location: Omaha
(41.2590°N, 95.9380°W)
Time: 13:39:29
(UTC-06:00)
Language:

Envisat - Orbit

View from above orbital plane
View from above orbital plane
View from above satellite
View from above satellite

Ground track
Ground track

The orbit data is extracted from the following two-line orbital elements,

1 27386U 02009A   17351.46737693 -.00000014  00000-0  91822-5 0  9992
2 27386  98.2093  28.8685 0001487  81.9854 278.1503 14.37910895827416
Epoch (UTC): 17 December 2017 11:13:01
Eccentricity: 0.0001487
inclination: 98.2093°
perigee height: 764 km
apogee height: 766 km
right ascension of ascending node: 28.8685°
argument of perigee: 81.9854°
revolutions per day: 14.37910895
mean anomaly at epoch: 278.1503°
orbit number at epoch: 82741

The dashed part of the orbit path shows where the satellite is in the earth's shadow,  

DLR